Sturgeon Bay, WI

8:37 PM CDT on April 29, 2017 (GMT -0500)
Door County Cherryland

Weather History for KSUE - May, 2012

Change the Weather History Date:

Saturday, May 12, 2012

  Actual Average Record
Temperature  
Mean Temperature 55 °F -  
Max Temperature 62 °F 63 °F 84 °F (1977)
Min Temperature 46 °F 41 °F 24 °F (1934)
Degree Days  
Heating Degree Days 10    
Growing Degree Days 5 (Base 50)    
Moisture  
Dew Point 34 °F    
Average Humidity 44    
Maximum Humidity 77    
Minimum Humidity 29    
Precipitation  
Precipitation 0.00 in - - ()
Sea Level Pressure  
Sea Level Pressure 30.27 in    
Wind  
Wind Speed 10 mph (NNE)    
Max Wind Speed 16 mph    
Max Gust Speed 23 mph    
Visibility 10 miles    
Events      
Averages and records for this station are not official NWS values.
T = Trace of Precipitation, MM = Missing Value Source: NWS Daily Summary

Daily Weather History Graph

Daily Weather History Graph

Search for Another Location

Airport or City:

Trip Planner

Search our weather history database for the weather conditions in past years. The results will help you decide how hot, cold, wet, or windy it might be!

Date:

Astronomy

May. 12, 2012 Rise Set
Actual Time 5:24 AM CDT 8:08 PM CDT
Civil Twilight 4:50 AM CDT 8:42 PM CDT
Nautical Twilight 4:07 AM CDT 9:25 PM CDT
Astronomical Twilight 3:18 AM CDT 10:15 PM CDT
Moon 1:17 AM CDT (5/12) 12:08 PM CDT (5/12)
Length of Visible Light 15h 52m
Length of Day
14h 44m
Waning Gibbous, 52% of the Moon is Illuminated
May 12
Waning Gibbous
May 12
Last Quarter
May 20
New
May 28
First Quarter
Jun 4
Full

Hourly Weather History & Observations

Time (CDT) Temp. Dew Point Humidity Pressure Visibility Wind Dir Wind Speed Gust Speed Precip Events Conditions
12:15 AM - - N/A% 30.11 in 10.0 mi North 13.8 mph 23.0 mph N/A   Mostly Cloudy
12:35 AM - - N/A% 30.12 in 10.0 mi NNW 16.1 mph 21.9 mph N/A   Partly Cloudy
12:55 AM - - N/A% 30.12 in 10.0 mi North 16.1 mph - N/A   Clear
1:15 AM - - N/A% 30.12 in 10.0 mi North 15.0 mph 19.6 mph N/A   Partly Cloudy
1:35 AM - - N/A% 30.14 in 10.0 mi North 11.5 mph - N/A   Partly Cloudy
1:55 AM - - N/A% 30.14 in 10.0 mi North 11.5 mph - N/A   Partly Cloudy
2:15 AM - - N/A% 30.15 in 10.0 mi North 9.2 mph - N/A   Mostly Cloudy
2:35 AM - - N/A% 30.16 in 10.0 mi North 11.5 mph - N/A   Overcast
2:55 AM - - N/A% 30.17 in 10.0 mi North 11.5 mph - N/A   Overcast
3:15 AM - - N/A% 30.18 in 10.0 mi NNW 8.1 mph - N/A   Overcast
3:35 AM - - N/A% 30.18 in 10.0 mi North 11.5 mph - N/A   Overcast
3:55 AM - - N/A% 30.20 in 10.0 mi North 12.7 mph 17.3 mph N/A   Overcast
4:15 AM - - N/A% 30.20 in 10.0 mi North 10.4 mph - N/A   Overcast
4:35 AM - - N/A% 30.20 in 10.0 mi North 10.4 mph - N/A   Overcast
4:55 AM 53.6 °F 46.4 °F 77% 30.22 in 10.0 mi North 8.1 mph - N/A   Overcast
5:15 AM - - N/A% 30.23 in 10.0 mi NNW 9.2 mph - N/A   Overcast
5:35 AM - - N/A% 30.23 in 10.0 mi NNW 6.9 mph - N/A   Overcast
5:55 AM - - N/A% 30.24 in 10.0 mi NNW 6.9 mph - N/A   Partly Cloudy
6:15 AM - - N/A% 30.25 in 10.0 mi NNW 5.8 mph - N/A   Clear
6:35 AM - - N/A% 30.26 in 10.0 mi NNW 5.8 mph - N/A   Clear
6:55 AM 53.6 °F 46.4 °F 77% 30.28 in 10.0 mi NNW 6.9 mph - N/A   Clear
7:15 AM 53.6 °F 46.4 °F 77% 30.29 in 10.0 mi NNW 9.2 mph - N/A   Clear
7:35 AM 53.6 °F 46.4 °F 77% 30.29 in 10.0 mi NNW 8.1 mph - N/A   Clear
7:55 AM 53.6 °F 46.4 °F 77% 30.30 in 10.0 mi NNW 10.4 mph - N/A   Clear
8:15 AM 55.4 °F 44.6 °F 67% 30.30 in 10.0 mi NNW 10.4 mph - N/A   Clear
8:35 AM - - N/A% 30.30 in 10.0 mi North 11.5 mph - N/A   Clear
8:55 AM 55.4 °F 42.8 °F 63% 30.31 in 10.0 mi North 11.5 mph 17.3 mph N/A   Clear
9:15 AM 55.4 °F 42.8 °F 63% 30.31 in 10.0 mi North 10.4 mph - N/A   Clear
9:35 AM 55.4 °F 41.0 °F 58% 30.31 in 10.0 mi North 12.7 mph - N/A   Clear
9:55 AM 57.2 °F 41.0 °F 55% 30.32 in 10.0 mi North 9.2 mph - N/A   Clear
10:55 AM 59.0 °F 37.4 °F 45% 30.33 in 10.0 mi North 12.7 mph - N/A   Clear
11:15 AM 59.0 °F 35.6 °F 42% 30.33 in 10.0 mi North 15.0 mph - N/A   Clear
11:35 AM 60.8 °F 32.0 °F 34% 30.33 in 10.0 mi NNE 11.5 mph - N/A   Partly Cloudy
11:55 AM 59.0 °F 33.8 °F 39% 30.34 in 10.0 mi North 9.2 mph - N/A   Mostly Cloudy
12:15 PM 60.8 °F 33.8 °F 36% 30.33 in 10.0 mi North 10.4 mph - N/A   Mostly Cloudy
12:35 PM 60.8 °F 32.0 °F 34% 30.33 in 10.0 mi North 9.2 mph - N/A   Partly Cloudy
12:55 PM 60.8 °F 33.8 °F 36% 30.32 in 10.0 mi North 5.8 mph - N/A   Clear
1:15 PM 60.8 °F 35.6 °F 39% 30.32 in 10.0 mi NNE 8.1 mph - N/A   Clear
1:35 PM 62.6 °F 35.6 °F 37% 30.31 in 10.0 mi NNW 9.2 mph - N/A   Clear
1:55 PM 62.6 °F 35.6 °F 37% 30.31 in 10.0 mi NNE 8.1 mph - N/A   Clear
2:15 PM 62.6 °F 35.6 °F 37% 30.30 in 10.0 mi North 10.4 mph - N/A   Clear
2:35 PM 62.6 °F 33.8 °F 34% 30.30 in 10.0 mi North 9.2 mph - N/A   Clear
2:55 PM 62.6 °F 35.6 °F 37% 30.30 in 10.0 mi East 4.6 mph - N/A   Clear
3:15 PM 62.6 °F 33.8 °F 34% 30.30 in 10.0 mi East 6.9 mph - N/A   Clear
3:35 PM 62.6 °F 33.8 °F 34% 30.29 in 10.0 mi East 5.8 mph - N/A   Clear
3:55 PM 60.8 °F 32.0 °F 34% 30.29 in 10.0 mi East 6.9 mph - N/A   Clear
4:15 PM 60.8 °F 30.2 °F 31% 30.29 in 10.0 mi East 6.9 mph - N/A   Clear
4:35 PM 60.8 °F 28.4 °F 29% 30.29 in 10.0 mi East 6.9 mph - N/A   Clear
4:55 PM 60.8 °F 28.4 °F 29% 30.29 in 10.0 mi ESE 6.9 mph - N/A   Clear
5:15 PM 60.8 °F 28.4 °F 29% 30.29 in 10.0 mi ESE 8.1 mph - N/A   Clear
5:35 PM 60.8 °F 28.4 °F 29% 30.29 in 10.0 mi ESE 6.9 mph - N/A   Clear
5:55 PM 59.0 °F 28.4 °F 31% 30.29 in 10.0 mi SE 6.9 mph - N/A   Clear
6:15 PM 59.0 °F 26.6 °F 29% 30.28 in 10.0 mi ESE 4.6 mph - N/A   Clear
6:35 PM 57.2 °F 28.4 °F 33% 30.28 in 10.0 mi ESE 6.9 mph - N/A   Clear
6:55 PM 57.2 °F 30.2 °F 36% 30.28 in 10.0 mi SSE 5.8 mph - N/A   Clear
7:15 PM 57.2 °F 28.4 °F 33% 30.29 in 10.0 mi SE 4.6 mph - N/A   Clear
7:35 PM 55.4 °F 30.2 °F 38% 30.29 in 10.0 mi SSE 4.6 mph - N/A   Clear
7:55 PM 55.4 °F 30.2 °F 38% 30.29 in 10.0 mi SSE 5.8 mph - N/A   Clear
8:15 PM 55.4 °F 30.2 °F 38% 30.29 in 10.0 mi SSE 4.6 mph - N/A   Clear
8:35 PM 53.6 °F 28.4 °F 38% 30.29 in 10.0 mi SSE 4.6 mph - N/A   Clear
8:55 PM 51.8 °F 30.2 °F 44% 30.29 in 10.0 mi SSE 5.8 mph - N/A   Clear
9:15 PM 51.8 °F 28.4 °F 41% 30.29 in 10.0 mi South 5.8 mph - N/A   Clear
9:35 PM 50.0 °F 30.2 °F 47% 30.30 in 10.0 mi SSE 3.5 mph - N/A   Clear
9:55 PM 51.8 °F 28.4 °F 41% 30.30 in 10.0 mi South 3.5 mph - N/A   Clear
10:15 PM 50.0 °F 28.4 °F 43% 30.30 in 10.0 mi South 4.6 mph - N/A   Clear
10:35 PM 50.0 °F 28.4 °F 43% 30.30 in 10.0 mi South 3.5 mph - N/A   Clear
10:55 PM 50.0 °F 28.4 °F 43% 30.30 in 10.0 mi SSE 4.6 mph - N/A   Clear
11:15 PM 50.0 °F 28.4 °F 43% 30.30 in 10.0 mi South 3.5 mph - N/A   Clear
11:35 PM 48.2 °F 28.4 °F 46% 30.31 in 10.0 mi Calm Calm - N/A   Clear
11:55 PM 46.4 °F 28.4 °F 50% 30.31 in 10.0 mi Calm Calm - N/A   Clear